Regional Weather Roundup
Issued by NWS

Home | Current Version | Previous Version | Text Only | Print | Product List | Glossary Off
Versions: 1 2 3 4 5 6 7 8 9 10 11 12 13 14 15 16 17 18 19 20 21 22 23 24 25 26 27 28 29 30 31 32 33 34 35 36 37 38 39 40 41 42 43 44 45 46 47 48 49 50

000
ASUS45 KCYS 030610
RWRWY

WYOMING REGIONAL WEATHER ROUNDUP
NATIONAL WEATHER SERVICE CHEYENNE WY
1100 PM MST MON MAR 02 2015

NOTE:  "FAIR" INDICATES FEW OR NO CLOUDS BELOW 12,000 FEET
WITH NO SIGNIFICANT WEATHER AND/OR OBSTRUCTIONS TO VISIBILITY.

WYZ001-030700-
YELLOWSTONE NATIONAL PARK

CITY           SKY/WX    TMP DP  RH WIND       PRES   REMARKS
LK YELLOWSTONE   N/A     18  13  80 VRB3      29.64S
6HR MIN TEMP:  18; 6HR MAX TEMP:  27; 6HR PCP:  0.04;

W YELLOWSTONE  NOT AVBL

$$
WYZ002>013-054>058-071-098>099-030700-
NORTHERN WYOMING

CITY           SKY/WX    TMP DP  RH WIND       PRES   REMARKS
JACKSON        CLOUDY    25  25 100 CALM      29.64R
CODY           CLOUDY    18  12  79 N23G30    29.82R WCI   0
GREYBULL       CLOUDY    27  15  61 NW24      29.75R WCI  12
6HR MIN TEMP:  27; 6HR MAX TEMP:  40;

WORLAND        CLOUDY    26  20  77 NW22G29   29.73R WCI  12
6HR MIN TEMP:  26; 6HR MAX TEMP:  36; 6HR PCP: TRACE;

SHERIDAN       SNOW      21  18  88 NW32G40   29.88R VSB 1/2 WCI   2
6HR MIN TEMP:  22; 6HR MAX TEMP:  37; 6HR PCP:  0.08;

BUFFALO        LGT SNOW  22  20  92 N25G35    29.78R VSB 3/4 WCI   5
6HR MIN TEMP:  22; 6HR MAX TEMP:  36; 6HR PCP: TRACE;

GILLETTE       LGT SNOW  24  21  88 N18       29.76R VSB 3/4 WCI  10
6HR MIN TEMP:  24; 6HR MAX TEMP:  38; 6HR PCP: TRACE;

HULETT         LGT SNOW  27  21  80 N15G22    29.77R WCI  15
NEWCASTLE      FAIR      30  21  69 N10       29.70R WCI  21

$$
WYZ014>020-022>026-101>103-030700-
CENTRAL WYOMING

CITY           SKY/WX    TMP DP  RH WIND       PRES   REMARKS
BIG PINEY      CLOUDY    24  20  84 N9        29.60S WCI  14
6HR MIN TEMP:  24; 6HR MAX TEMP:  30; 6HR PCP: TRACE;

PINEDALE       LGT SNOW  23  23 100 W6        29.61R WCI  16
DUBOIS         LGT SNOW  21  19  93 SE8       29.61R WCI  12
LANDER         SNOW      25  23  92 W9        29.68R VSB 1/4 WCI  15
6HR MIN TEMP:  21; 6HR MAX TEMP:  25; 6HR PCP:  0.14;

RIVERTON       LGT SNOW  25  21  85 N17G23    29.69S FOG     WCI  12
6HR MIN TEMP:  22; 6HR MAX TEMP:  25; 6HR PCP:  0.19;

CASPER         FLURRIES  26  22  84 NE10      29.64R WCI  16
6HR MIN TEMP:  26; 6HR MAX TEMP:  32; 6HR PCP:  0.23;

DOUGLAS        FLURRIES  28  25  88 NE20G26   29.61S WCI  15
6HR MIN TEMP:  28; 6HR MAX TEMP:  32; 6HR PCP:  0.05;


$$
WYZ021-027>030-104>119-030700-
SOUTHERN WYOMING

CITY           SKY/WX    TMP DP  RH WIND       PRES   REMARKS
EVANSTON       CLOUDY    26  24  92 W14       29.70R WCI  14
6HR MIN TEMP:  26; 6HR MAX TEMP:  33; 6HR PCP:  0.05;

KEMMERER       FLURRIES  25  21  86 W22G32    29.63R WCI  10
FORT BRIDGER   MOCLDY    29  28  96 W18G25    29.68R WCI  16
ROCK SPRINGS   CLOUDY    28  26  92 SW15      29.61F WCI  16
DIXON          HVY SNOW  33  31  91 SW24      29.65R VSB 1/4 WCI  20
RAWLINS        MOCLDY    32  27  81 SW13      29.54S WCI  22
6HR MIN TEMP:  29; 6HR MAX TEMP:  34; 6HR PCP:  0.04;

SARATOGA       LGT SNOW  32  32 100 W14G22    29.58R WCI  22
LARAMIE        FAIR      32  27  81 SW18      29.54F WCI  20
6HR MIN TEMP:  31; 6HR MAX TEMP:  41; 6HR PCP:  0.03;

CHEYENNE       MOCLDY    38  31  76 NW12      29.53F WCI  30
6HR MIN TEMP:  29; 6HR MAX TEMP:  40; 6HR PCP: TRACE;

TORRINGTON     CLOUDY    29  26  89 CALM      29.63R FOG
6HR MIN TEMP:  28; 6HR MAX TEMP:  45; 6HR PCP: TRACE;

PINE BLUFFS    CLOUDY    28  27  93 NE6       29.54F FOG     WCI  22

$$



USA.gov is the U.S. government's official web portal to all federal, state and local government web resources and services.